Flag for Canada Weather past 2 weeks in Creston, British Columbia, Canada

Now
73 °F

Mild.


Feels Like: 76 °F
Forecast: 51 / 68 °F
Wind: 10 mph from Northwest

Location: Creston

Current Time: May 24, 2015 at 6:48:50 PM

Latest Report: May 24, 2015 at 6:00 PM


Visibility: N/A

Pressure: 29.82 "Hg

Humidity: 26%

Dew point: 37 °F

Location of CrestonLocation

Historic Weather in Creston — Graph

°F

Creston temperature yesterday

Maximum temperature yesterday: 84 °F (at 4:00 PM)
Minimum temperature yesterday: 59 °F (at 6:00 AM)
Average temperature yesterday: 71 °F

Past Weeks' High & Low Weather Summary

 TemperatureHumidityPressure
High84 °F (May 23, 4:00 PM)100% (May 14, 4:00 AM)30.26 "Hg (May 14, 4:00 AM)
Low44 °F (May 14, 4:00 AM)11% (May 23, 5:00 PM)29.65 "Hg (May 15, 6:00 PM)
Average62 °F42%29.96 "Hg
* Reported May 9 5:00 PM — May 24 5:00 PM, Creston, Weather by CustomWeather, © 2015

Note: Actual official high and low records may vary slightly from our data, if they occured in-between our weather recording intervals... More about our weather records

Advertising

Creston weather history for previous 24 hours

 ConditionsComfort  
Time TempWeatherWind HumidityBarometerVisibility
5:00 PM
Sun, May 24
79 °FPleasantly warm.6 mph21%29.80 "HgN/A
4:00 PM80 °FPleasantly warm.6 mph19%29.81 "HgN/A
3:00 PM81 °FPleasantly warm.7 mph16%29.82 "HgN/A
2:00 PM80 °FPleasantly warm.5 mph16%29.85 "HgN/A
1:00 PM78 °FPleasantly warm.3 mph21%29.88 "HgN/A
12:00 PM76 °FMild.2 mph31%29.92 "HgN/A
11:00 AM72 °FMild.2 mph29%29.95 "HgN/A
10:00 AM69 °FMild.2 mph32%29.97 "HgN/A
9:00 AM65 °FMild.2 mph45%30.00 "HgN/A
8:00 AM59 °FRefreshingly cool.1 mph51%30.02 "HgN/A
7:00 AM60 °FRefreshingly cool.2 mph47%30.01 "HgN/A
6:00 AM58 °FRefreshingly cool.1 mph41%30.02 "HgN/A
5:00 AM56 °FRefreshingly cool.3 mph45%30.02 "HgN/A
4:00 AM59 °FRefreshingly cool.5 mph39%30.01 "HgN/A
3:00 AM61 °FRefreshingly cool.2 mph35%30.01 "HgN/A
2:00 AM62 °FRefreshingly cool.No wind31%30.01 "HgN/A
1:00 AM64 °FMild.5 mph29%30.01 "HgN/A
12:00 AM64 °FMild.3 mph30%30.01 "HgN/A
11:00 PM
Sat, May 23
65 °FMild.5 mph27%30.00 "HgN/A
10:00 PM71 °FMild.6 mph20%29.98 "HgN/A
9:00 PM73 °FMild.2 mph17%29.96 "HgN/A
8:00 PM76 °FMild.8 mph14%29.93 "HgN/A
7:00 PM78 °FPleasantly warm.8 mph13%29.92 "HgN/A
6:00 PM83 °FPleasantly warm.7 mph11%29.91 "HgN/A
Weather by CustomWeather, © 2015

See weather overviewHow to use our weather pages